K5RLW Weather Reports


time (UTC)temp
F
wind
direction
speed
knots
gust
knots
rain 1hr
in
rain 24hr
in
rain mn
in
humidity
%
barometer
mb
20260508020016 63 0.0 0.0 0.00 0.00 0.00 70 1015.8
20260508015016 64 0.0 0.0 0.00 0.00 0.00 69 1015.9
20260508014015 64 0.0 0.0 0.00 0.00 0.00 68 1015.9
20260508013015 65 0.0 0.0 0.00 0.00 0.00 68 1015.9
20260508012016 65 0.0 0.0 0.00 0.00 0.00 67 1015.9
20260508011016 66 0.0 0.0 0.00 0.00 0.00 66 1015.9
20260508010015 67 0.0 0.0 0.00 0.00 0.00 66 1015.8
20260508005016 68 0.0 0.0 0.00 0.00 0.00 65 1015.9
20260508004015 68 0.0 0.0 0.00 0.00 0.00 63 1015.9
20260508003015 68 0.0 0.0 0.00 0.00 0.00 62 1015.8
20260508002015 69 0.0 0.0 0.00 0.00 0.00 61 1015.9
20260508001015 69 0.0 0.0 0.00 0.00 0.00 59 1016.1
20260508000015 69 0.0 0.0 0.00 0.00 0.00 58 1016.0
20260507235015 69 0.0 0.0 0.00 0.00 0.00 58 1016.3
20260507234015 69 0.0 0.0 0.00 0.00 0.00 57 1016.2
20260507233015 69 0.0 0.0 0.00 0.00 0.00 57 1016.3
20260507232016 70 0.0 0.0 0.00 0.00 0.00 57 1016.3
20260507231015 70 0.0 0.0 0.00 0.00 0.00 58 1016.3
20260507230015 70 0.0 0.0 0.00 0.00 0.00 56 1016.4
20260507225015 70 0.0 0.0 0.00 0.00 0.00 55 1016.5
20260507224015 71 0.0 0.0 0.00 0.00 0.00 58 1016.5
20260507223015 71 0.0 0.0 0.00 0.00 0.00 56 1016.6
20260507222015 71 0.0 0.0 0.00 0.00 0.00 56 1016.7
20260507221015 71 0.0 0.0 0.00 0.00 0.00 56 1016.7
20260507220015 72 0.0 0.0 0.00 0.00 0.00 58 1016.7
20260507215015 72 0.0 0.0 0.00 0.00 0.00 55 1016.8
20260507214015 72 135 0.9 2.6 0.00 0.00 0.00 53 1016.9
20260507213015 72 135 0.9 2.6 0.00 0.00 0.00 54 1017.0
20260507212016 72 0.0 0.9 0.00 0.00 0.00 54 1017.3
20260507211015 72 0.0 1.7 0.00 0.00 0.00 55 1017.4
20260507210035 72 0.0 0.0 0.00 0.00 0.00 54 1017.6
20260507205015 73 135 0.9 3.5 0.00 0.00 0.00 51 1017.8
20260507204015 73 135 1.7 4.3 0.00 0.00 0.00 52 1017.7
20260507203035 72 135 0.9 2.6 0.00 0.00 0.00 54 1017.6
20260507202015 72 135 0.9 2.6 0.00 0.00 0.00 52 1017.4
20260507201015 73 338 0.9 3.5 0.00 0.00 0.00 53 1017.8
20260507200017 73 158 0.9 2.6 0.00 0.00 0.00 52 1017.9
20260507194037 72 135 2.6 7.8 0.00 0.00 0.00 53 1018.3
20260507193037 72 135 1.7 5.2 0.00 0.00 0.00 52 1018.4
20260507192017 71 135 0.9 2.6 0.00 0.00 0.00 53 1018.7
20260507191017 71 158 0.9 4.3 0.00 0.00 0.00 53 1019.0
20260507190017 71 23 1.7 7.8 0.00 0.00 0.00 53 1019.0
20260507185017 71 0.0 0.0 0.00 0.00 0.00 53 1019.1
20260507184017 71 0.0 0.0 0.00 0.00 0.00 52 1019.0
20260507183017 71 0.0 0.0 0.00 0.00 0.00 52 1019.0
20260507182037 70 0.0 0.0 0.00 0.00 0.00 53 1019.2
20260507181017 70 0.0 0.0 0.00 0.00 0.00 52 1019.3
20260507180017 70 0.0 0.0 0.00 0.00 0.00 54 1019.4
20260507175016 70 0.0 0.0 0.00 0.00 0.00 55 1019.5
20260507174017 69 0.0 0.0 0.00 0.00 0.00 57 1019.7
20260507173017 69 0.0 0.0 0.00 0.00 0.00 55 1020.0
20260507172037 69 0.0 0.0 0.00 0.00 0.00 58 1020.3
20260507171017 68 0.0 0.0 0.00 0.00 0.00 60 1020.4
20260507170017 67 0.0 0.0 0.00 0.00 0.00 60 1020.9
20260507165017 66 0.0 0.0 0.00 0.00 0.00 62 1021.1
20260507164016 66 0.0 0.0 0.00 0.00 0.00 62 1021.3
20260507163016 66 0.0 0.0 0.00 0.00 0.00 62 1021.3
20260507162036 66 0.0 0.0 0.00 0.00 0.00 61 1021.4
20260507161057 66 0.0 0.0 0.00 0.00 0.00 63 1021.3
20260507160036 65 0.0 0.0 0.00 0.00 0.00 64 1021.1
20260507155036 65 0.0 0.0 0.00 0.00 0.00 64 1021.1
20260507154017 65 0.0 0.0 0.00 0.00 0.00 63 1021.2
20260507153037 65 0.0 0.0 0.00 0.00 0.00 65 1021.4
20260507152016 64 0.0 0.0 0.00 0.01 0.00 68 1021.5
20260507151016 62 0.0 0.0 0.00 0.01 0.00 67 1021.5
20260507150016 62 0.0 0.0 0.00 0.01 0.00 71 1021.6
20260507145016 62 0.0 0.0 0.00 0.03 0.00 73 1021.7
20260507144016 61 0.0 0.0 0.00 0.04 0.00 74 1021.7
20260507143016 60 0.0 0.0 0.00 0.04 0.00 74 1021.7
20260507142037 60 0.0 0.0 0.00 0.04 0.00 78 1021.7
20260507141016 58 0.0 0.0 0.00 0.04 0.00 81 1021.8
20260507140016 57 0.0 0.0 0.00 0.04 0.00 82 1021.7
20260507135016 56 0.0 0.0 0.00 0.04 0.00 82 1021.8
20260507134016 56 0.0 0.0 0.00 0.04 0.00 84 1022.0
20260507133016 55 0.0 0.0 0.00 0.04 0.00 85 1022.1
20260507132016 54 0.0 0.0 0.00 0.04 0.00 86 1021.9
20260507131016 54 0.0 0.0 0.00 0.04 0.00 89 1022.0
20260507130016 53 0.0 0.0 0.00 0.04 0.00 90 1021.9
20260507125016 52 0.0 0.0 0.00 0.04 0.00 90 1021.6
20260507124016 52 0.0 0.0 0.00 0.04 0.00 90 1021.5
20260507123016 52 0.0 0.0 0.00 0.04 0.00 90 1021.5
20260507122036 51 0.0 0.0 0.00 0.04 0.00 90 1021.4
20260507121016 51 0.0 0.0 0.00 0.04 0.00 89 1021.5
20260507120016 51 0.0 0.0 0.00 0.04 0.00 89 1021.5
20260507115016 51 0.0 0.0 0.00 0.04 0.00 89 1021.3
20260507114016 51 0.0 0.0 0.00 0.04 0.00 89 1021.2
20260507113016 51 0.0 0.0 0.00 0.04 0.00 89 1021.2
20260507112016 51 0.0 0.0 0.00 0.04 0.00 89 1021.1
20260507111016 51 0.0 0.0 0.00 0.04 0.00 89 1021.2
20260507110016 51 0.0 0.0 0.00 0.04 0.00 89 1021.2
20260507105016 51 0.0 0.0 0.00 0.04 0.00 89 1021.2
20260507104016 51 0.0 0.0 0.00 0.04 0.00 89 1021.1
20260507103016 51 0.0 0.0 0.00 0.04 0.00 89 1020.7
20260507102016 51 0.0 0.0 0.00 0.04 0.00 89 1020.7
20260507101036 51 0.0 0.0 0.00 0.04 0.00 88 1020.5
20260507100016 52 0.0 0.0 0.00 0.04 0.00 88 1020.3
20260507095016 52 0.0 0.0 0.00 0.04 0.00 88 1020.2
20260507094036 52 0.0 0.0 0.00 0.04 0.00 88 1019.9
20260507093016 52 0.0 0.0 0.00 0.04 0.00 88 1019.9
20260507092016 52 0.0 0.0 0.00 0.04 0.00 87 1019.6
20260507091016 52 0.0 0.0 0.00 0.04 0.00 87 1019.4
20260507090016 52 0.0 0.0 0.00 0.04 0.00 86 1019.0
20260507085016 52 0.0 0.0 0.00 0.04 0.00 86 1018.9
20260507084016 53 0.0 0.0 0.00 0.04 0.00 86 1019.1
20260507083016 53 0.0 0.0 0.00 0.04 0.00 85 1019.0
20260507082016 53 0.0 0.0 0.00 0.04 0.00 84 1019.2
20260507081015 53 0.0 0.0 0.00 0.04 0.00 84 1019.1
20260507080016 54 0.0 0.0 0.00 0.04 0.00 83 1019.1
20260507075015 54 0.0 0.0 0.00 0.04 0.00 83 1019.1
20260507074016 54 0.0 0.0 0.00 0.04 0.00 82 1019.1
20260507073015 55 0.0 0.0 0.00 0.04 0.00 82 1019.1
20260507072015 55 0.0 0.0 0.00 0.04 0.00 82 1018.9
20260507071016 55 0.0 0.0 0.00 0.04 0.00 82 1018.8
20260507070016 55 0.0 0.0 0.00 0.04 0.00 81 1018.6
20260507065016 55 0.0 0.0 0.00 0.04 0.00 81 1018.6
20260507064016 56 0.0 0.0 0.00 0.04 0.00 81 1018.7
20260507063015 56 0.0 0.0 0.00 0.04 0.00 81 1018.4
20260507062015 56 0.0 0.0 0.00 0.04 0.00 80 1018.3
20260507061015 56 0.0 0.0 0.00 0.04 0.00 80 1018.3
20260507060015 56 0.0 0.0 0.00 0.04 0.00 80 1018.1
20260507055016 57 0.0 0.0 0.00 0.04 0.00 80 1018.2
20260507054016 57 0.0 0.0 0.00 0.04 0.00 80 1018.1
20260507053016 57 0.0 0.0 0.00 0.04 0.00 80 1018.2
20260507052015 57 0.0 0.0 0.00 0.04 0.00 79 1018.2
20260507051016 57 0.0 0.0 0.00 0.04 0.00 79 1018.2
20260507050015 57 0.0 0.0 0.00 0.04 0.04 78 1018.1
20260507044016 58 0.0 0.0 0.00 0.04 0.04 76 1018.0
20260507043016 58 0.0 0.0 0.00 0.04 0.04 76 1018.0
20260507042016 58 0.0 0.0 0.00 0.04 0.04 76 1018.0
20260507041016 58 0.0 0.0 0.00 0.04 0.04 76 1018.1
20260507040016 58 0.0 0.0 0.00 0.04 0.04 75 1018.3
20260507035016 58 0.0 0.0 0.00 0.04 0.04 75 1018.3
20260507034016 59 0.0 0.0 0.00 0.04 0.04 76 1018.2
20260507033016 59 0.0 0.0 0.00 0.04 0.04 75 1018.2
20260507032016 59 0.0 0.0 0.00 0.04 0.04 75 1018.0
20260507031016 59 0.0 0.0 0.00 0.04 0.04 75 1018.0
20260507030037 59 0.0 0.0 0.00 0.04 0.04 76 1018.0
20260507025016 60 0.0 0.0 0.00 0.04 0.04 75 1018.0
20260507024016 60 0.0 0.0 0.00 0.04 0.04 76 1017.7
20260507023016 60 0.0 0.0 0.00 0.04 0.04 76 1017.5
20260507022016 60 0.0 0.0 0.00 0.04 0.04 77 1017.4
20260507021036 60 0.0 0.0 0.00 0.04 0.04 77 1017.0